Ames, IA

10:35 PM CDT on May 22, 2017 (GMT -0500)
Ames Municipal

Weather History for KAMW - December, 2011

Change the Weather History Date:

Sunday, December 25, 2011

  Actual Average Record
Temperature  
Mean Temperature 34 °F 21 °F  
Max Temperature 47 °F 29 °F 48 °F (2014)
Min Temperature 21 °F 12 °F -15 °F (2000)
Degree Days  
Heating Degree Days 31 44  
Month to date heating degree days 899 1031  
Since 1 July heating degree days 2220 2485  
Cooling Degree Days 0 0  
Month to date cooling degree days 0 0  
Year to date cooling degree days 973 752  
Moisture  
Dew Point 23 °F    
Average Humidity 65    
Maximum Humidity 88    
Minimum Humidity 42    
Precipitation  
Precipitation 0.00 in 0.02 in 0.68 in (2016)
Month to date precipitation 1.79 0.93  
Year to date precipitation 31.04  
Sea Level Pressure  
Sea Level Pressure 30.30 in    
Wind  
Wind Speed 10 mph (WNW)    
Max Wind Speed 18 mph    
Max Gust Speed 22 mph    
Visibility 10 miles    
Events      
T = Trace of Precipitation, MM = Missing Value Source: NWS Daily Summary

Daily Weather History Graph

Daily Weather History Graph

Search for Another Location

Airport or City:

Trip Planner

Search our weather history database for the weather conditions in past years. The results will help you decide how hot, cold, wet, or windy it might be!

Date:

Astronomy

Dec. 25, 2011 Rise Set
Actual Time 7:40 AM CST 4:48 PM CST
Civil Twilight 7:09 AM CST 5:20 PM CST
Nautical Twilight 6:33 AM CST 5:55 PM CST
Astronomical Twilight 5:59 AM CST 6:29 PM CST
Moon 8:18 AM CST (12/25) 6:10 PM CST (12/25)
Length of Visible Light 10h 10m
Length of Day
9h 07m
New Moon, 1% of the Moon is Illuminated
Dec 25
New Moon
Jan 1
First Quarter
Jan 9
Full
Jan 16
Last Quarter
Jan 23
New

Hourly Weather History & Observations

Time (CST) Temp. Windchill Dew Point Humidity Pressure Visibility Wind Dir Wind Speed Gust Speed Precip Events Conditions
12:53 AM 36.0 °F 27.5 °F 27.0 °F 70% 30.20 in 10.0 mi West 12.7 mph - N/A   Clear
1:53 AM 35.1 °F 26.9 °F 25.0 °F 67% 30.20 in 10.0 mi West 11.5 mph - N/A   Clear
2:53 AM 33.1 °F 24.4 °F 24.1 °F 70% 30.21 in 10.0 mi West 11.5 mph - N/A   Clear
3:53 AM 33.1 °F 24.4 °F 21.9 °F 64% 30.20 in 10.0 mi West 11.5 mph - N/A   Clear
4:53 AM 34.0 °F 25.5 °F 21.9 °F 61% 30.22 in 10.0 mi WNW 11.5 mph - N/A   Clear
5:53 AM 33.1 °F 24.4 °F 21.0 °F 61% 30.24 in 10.0 mi WNW 11.5 mph - N/A   Clear
6:53 AM 33.1 °F 23.9 °F 21.9 °F 64% 30.26 in 10.0 mi WNW 12.7 mph - N/A   Clear
7:53 AM 32.0 °F 21.6 °F 21.9 °F 66% 30.30 in 10.0 mi NW 15.0 mph - N/A   Clear
8:53 AM 33.1 °F 23.9 °F 21.9 °F 64% 30.33 in 10.0 mi NW 12.7 mph - N/A   Clear
9:53 AM 37.0 °F 28.9 °F 24.1 °F 59% 30.35 in 10.0 mi NW 12.7 mph - N/A   Clear
11:53 AM 42.1 °F 35.7 °F 27.0 °F 55% 30.35 in 10.0 mi WNW 11.5 mph - N/A   Clear
1:53 PM 46.0 °F 39.9 °F 27.0 °F 47% 30.32 in 10.0 mi NW 13.8 mph - N/A   Clear
2:53 PM 46.0 °F 40.6 °F 25.0 °F 44% 30.33 in 10.0 mi NW 11.5 mph - N/A   Clear
3:53 PM 44.1 °F 39.0 °F 25.0 °F 47% 30.35 in 10.0 mi NNW 9.2 mph - N/A   Clear
4:53 PM 37.9 °F 32.7 °F 24.1 °F 57% 30.36 in 10.0 mi WNW 6.9 mph - N/A   Clear
5:53 PM 34.0 °F 28.0 °F 24.1 °F 67% 30.37 in 10.0 mi WNW 6.9 mph - N/A   Clear
6:53 PM 28.0 °F 20.0 °F 23.0 °F 81% 30.37 in 10.0 mi WSW 8.1 mph - N/A   Clear
8:53 PM 27.0 °F 18.0 °F 21.9 °F 81% 30.36 in 10.0 mi West 9.2 mph - N/A   Clear
9:53 PM 25.0 °F - 21.0 °F 85% 30.34 in 10.0 mi Calm Calm - N/A   Clear
10:53 PM 24.1 °F 17.0 °F 19.9 °F 84% 30.33 in 10.0 mi SW 5.8 mph - N/A   Clear
11:53 PM 26.1 °F 20.5 °F 21.0 °F 81% 30.31 in 10.0 mi SW 4.6 mph - N/A   Clear